period_start,C,m1,H,J0,J1,J2,J3,J4,J5,JA,JB,JC,JD,JJ,JK,JN,#
2017-09-27 00:00:23,0.03,0.71,0.00,20.87,25.88,29.01,14.09,41.55,1020.70,2037.89,3277.03,2895.80,3311.24,599.68,602.44,28.66,0000 0000 0000 0000 000000
2017-09-27 00:05:24,0.04,0.71,0.00,20.86,25.87,29.01,14.11,41.65,1020.72,2037.80,3276.41,2895.05,3310.51,600.10,602.89,28.71,0000 0000 0000 0000 000000
2017-09-27 00:10:25,0.03,0.71,0.00,20.87,25.87,29.00,14.07,41.55,1020.77,2037.87,3275.97,2894.62,3309.91,599.65,602.47,28.76,0000 0000 0000 0000 000000
2017-09-27 00:15:27,0.01,0.71,0.00,20.85,25.87,29.00,14.14,41.97,1020.65,2037.70,3275.19,2894.02,3309.10,600.38,603.16,28.81,0000 0000 0000 0000 000000
2017-09-27 00:20:28,0.00,0.71,0.00,20.87,25.87,28.99,14.08,42.10,1020.64,2037.41,3274.87,2893.75,3308.67,600.16,602.94,28.86,0000 0000 0000 0000 000000
2017-09-27 00:25:30,0.03,0.71,0.00,20.88,25.87,28.98,14.10,42.30,1020.63,2037.27,3274.15,2893.07,3308.03,600.05,602.71,28.91,0000 0000 0000 0000 000000
2017-09-27 00:30:31,-0.01,0.71,0.00,20.86,25.87,29.00,14.09,41.94,1020.59,2037.26,3274.00,2893.00,3307.90,599.39,602.41,28.96,0000 0000 0000 0000 000000
2017-09-27 00:35:32,0.03,0.71,0.00,20.90,25.87,28.99,14.11,42.11,1020.56,2037.27,3273.94,2892.89,3307.18,600.00,602.66,29.01,0000 0000 0000 0000 000000
2017-09-27 00:40:33,0.03,0.72,0.00,20.92,25.87,29.01,14.20,42.22,1020.53,2037.22,3273.30,2892.27,3307.00,600.13,602.63,29.06,0000 0000 0000 0000 000000
2017-09-27 00:45:35,0.02,0.72,0.00,20.90,25.87,28.98,14.04,41.73,1020.53,2037.25,3273.02,2892.02,3306.84,599.29,601.92,29.11,0000 0000 0000 0000 000000
2017-09-27 00:50:36,0.01,0.72,0.00,20.90,25.86,28.99,14.10,42.01,1020.53,2037.20,3273.00,2892.00,3306.16,600.29,602.92,29.16,0000 0000 0000 0000 000000
2017-09-27 00:55:37,0.01,0.72,0.00,20.89,25.86,28.98,14.07,41.68,1020.52,2037.32,3273.00,2892.00,3306.01,599.89,602.51,29.21,0000 0000 0000 0000 000000
2017-09-27 01:00:38,-0.00,0.72,0.00,20.88,25.86,28.98,14.10,41.74,1020.53,2037.27,3272.98,2892.00,3306.00,600.04,602.75,29.26,0000 0000 0000 0000 000000
2017-09-27 01:05:40,-0.01,0.72,0.00,20.88,25.85,28.98,14.08,41.65,1020.52,2037.14,3272.61,2891.95,3305.99,599.57,602.40,29.31,0000 0000 0000 0000 000000
2017-09-27 01:10:41,0.03,0.72,0.00,20.89,25.85,28.98,14.09,42.05,1020.52,2037.22,3272.21,2891.63,3305.71,600.41,603.06,29.36,0000 0000 0000 0000 000000
2017-09-27 01:15:42,0.01,0.72,0.00,20.90,25.85,28.98,14.03,42.12,1020.52,2037.05,3272.00,2891.11,3305.08,599.95,602.50,29.41,0000 0000 0000 0000 000000
2017-09-27 01:20:44,0.00,0.72,0.00,20.90,25.85,28.98,14.03,41.92,1020.52,2037.06,3272.00,2891.02,3305.00,599.62,602.16,29.46,0000 0000 0000 0000 000000
2017-09-27 01:25:45,0.00,0.72,0.00,20.90,25.85,28.99,14.12,41.94,1020.52,2037.07,3271.99,2891.01,3305.00,600.51,603.16,29.51,0000 0000 0000 0000 000000
2017-09-27 01:30:46,-0.00,0.72,0.00,20.92,25.85,28.98,14.12,42.10,1020.51,2037.04,3271.91,2891.00,3304.99,600.21,602.77,29.56,0000 0000 0000 0000 000000
2017-09-27 01:35:48,0.01,0.72,0.00,20.92,25.85,28.97,14.07,42.15,1020.51,2037.04,3271.48,2890.99,3304.85,599.64,602.19,29.61,0000 0000 0000 0000 000000
2017-09-27 01:40:49,0.01,0.72,0.00,20.94,25.85,28.98,14.12,42.25,1020.52,2037.02,3271.10,2890.97,3304.36,600.16,602.71,29.66,0000 0000 0000 0000 000000
2017-09-27 01:45:50,0.00,0.72,0.00,20.94,25.85,28.98,14.16,42.20,1020.52,2037.01,3271.02,2890.95,3304.09,599.94,602.39,29.71,0000 0000 0000 0000 000000
2017-09-27 01:50:52,0.01,0.72,0.00,20.98,25.85,28.99,14.09,42.19,1020.53,2037.00,3271.00,2890.58,3304.00,600.01,602.41,29.76,0000 0000 0000 0000 000000
2017-09-27 01:55:53,0.01,0.72,0.00,20.99,25.86,28.99,14.09,42.17,1020.54,2037.01,3270.98,2890.16,3304.00,599.99,602.40,29.82,0000 0000 0000 0000 000000
2017-09-27 02:00:54,0.00,0.72,0.00,21.02,25.87,28.99,14.06,42.37,1020.54,2037.01,3270.85,2890.02,3303.97,599.82,602.14,29.87,0000 0000 0000 0000 000000
2017-09-27 02:05:55,0.02,0.72,0.00,21.02,25.87,28.99,14.11,42.38,1020.53,2037.00,3270.21,2890.00,3303.64,600.04,602.44,29.92,0000 0000 0000 0000 000000
2017-09-27 02:10:57,0.00,0.72,0.00,21.02,25.87,29.00,14.08,42.52,1020.54,2037.00,3270.03,2890.00,3303.17,600.42,602.80,29.97,0000 0000 0000 0000 000000
2017-09-27 02:15:58,0.00,0.72,0.00,21.03,25.87,29.00,14.01,42.36,1020.63,2037.00,3269.99,2889.97,3303.00,600.04,602.52,30.02,0000 0000 0000 0000 000000
2017-09-27 02:20:59,0.01,0.72,0.00,21.06,25.87,29.00,14.07,42.37,1020.56,2037.00,3269.87,2889.66,3302.97,599.58,601.92,30.07,0000 0000 0000 0000 000000
2017-09-27 02:26:00,0.03,0.73,0.00,21.08,25.88,29.02,14.03,42.38,1020.54,2037.00,3269.19,2889.07,3302.46,599.61,602.04,30.12,0000 0000 0000 0000 000000
2017-09-27 02:31:01,0.00,0.73,0.00,21.10,25.90,29.01,14.11,42.39,1020.55,2036.99,3269.00,2889.00,3302.01,600.05,602.30,30.17,0000 0000 0000 0000 000000
2017-09-27 02:36:02,0.00,0.73,0.00,21.08,25.90,29.02,13.99,42.36,1020.54,2036.99,3269.00,2889.00,3302.00,599.97,602.34,30.22,0000 0000 0000 0000 000000
2017-09-27 02:41:04,0.00,0.73,0.00,21.08,25.90,29.02,14.09,42.43,1020.55,2036.99,3268.97,2889.00,3301.99,600.28,602.54,30.27,0000 0000 0000 0000 000000
2017-09-27 02:46:05,0.02,0.73,0.00,21.09,25.90,29.04,14.00,42.33,1020.60,2036.99,3268.50,2888.87,3301.84,599.70,601.96,30.32,0000 0000 0000 0000 000000
2017-09-27 02:51:06,0.05,0.73,0.00,21.10,25.92,29.04,14.09,42.42,1020.60,2036.98,3267.38,2888.07,3301.05,600.14,602.33,30.37,0000 0000 0000 0000 000000
2017-09-27 02:56:07,0.00,0.73,0.00,21.12,25.92,29.05,14.13,42.48,1020.55,2036.99,3267.00,2887.99,3300.92,600.08,602.19,30.42,0000 0000 0000 0000 000000
2017-09-27 03:01:08,0.01,0.73,0.00,21.12,25.92,29.05,14.09,42.48,1020.56,2036.98,3266.97,2887.95,3300.44,600.22,602.38,30.47,0000 0000 0000 0000 000000
2017-09-27 03:06:10,0.01,0.73,0.00,21.13,25.92,29.06,14.08,42.48,1020.57,2036.98,3266.80,2887.73,3300.06,600.17,602.38,30.52,0000 0000 0000 0000 000000
2017-09-27 03:11:11,0.02,0.73,0.00,21.11,25.93,29.07,14.04,42.37,1020.54,2036.99,3266.26,2887.28,3300.00,600.06,602.19,30.57,0000 0000 0000 0000 000000
2017-09-27 03:16:12,0.00,0.73,0.00,21.11,25.94,29.07,14.08,42.42,1020.54,2036.99,3266.03,2887.05,3300.00,600.27,602.45,30.62,0000 0000 0000 0000 000000
2017-09-27 03:21:14,0.00,0.73,0.00,21.14,25.95,29.07,14.20,42.57,1020.53,2036.99,3266.00,2887.00,3299.97,600.37,602.47,30.67,0000 0000 0000 0000 000000
2017-09-27 03:26:15,0.01,0.73,0.00,21.11,25.95,29.08,14.00,42.48,1020.52,2036.98,3265.94,2887.00,3299.59,599.83,602.12,30.72,0000 0000 0000 0000 000000
2017-09-27 03:31:16,0.02,0.73,0.00,21.15,25.95,29.08,14.03,42.48,1020.52,2036.97,3265.44,2886.98,3299.07,600.17,602.24,30.77,0000 0000 0000 0000 000000
2017-09-27 03:36:18,0.00,0.74,0.00,21.15,25.96,29.09,14.02,42.39,1020.52,2036.96,3265.07,2886.85,3299.00,599.87,601.92,30.82,0000 0000 0000 0000 000000
2017-09-27 03:41:19,0.01,0.74,0.00,21.17,25.97,29.09,14.09,42.38,1020.52,2036.97,3264.96,2886.37,3298.95,599.92,601.88,30.87,0000 0000 0000 0000 000000
2017-09-27 03:46:20,0.08,0.74,0.00,21.19,25.97,29.10,14.01,42.21,1020.52,2036.96,3263.59,2885.48,3297.81,599.67,601.74,30.92,0000 0000 0000 0000 000000
2017-09-27 03:51:21,0.08,0.74,0.00,21.22,25.98,29.11,14.04,42.33,1020.53,2036.95,3261.75,2884.15,3296.33,599.59,601.60,30.97,0000 0000 0000 0000 000000
2017-09-27 03:56:23,0.12,0.75,0.00,21.23,26.00,29.10,14.13,42.40,1020.53,2036.87,3259.47,2882.38,3294.34,600.15,602.08,31.02,0000 0000 0000 0000 000000
2017-09-27 04:01:24,0.15,0.76,0.00,21.27,26.00,29.11,14.07,42.17,1020.53,2036.83,3256.35,2880.21,3291.88,600.10,601.91,31.07,0000 0000 0000 0000 000000
2017-09-27 04:06:25,0.72,0.78,0.00,21.22,26.00,29.13,14.10,42.22,1020.54,2036.62,3244.98,2871.81,3282.34,600.16,602.06,31.12,0000 0000 0000 0000 000000
2017-09-27 04:11:26,1.88,0.84,0.00,21.23,26.02,29.14,13.97,42.11,1020.52,2036.28,3217.10,2849.30,3257.79,599.43,601.51,31.17,0000 0000 0000 0000 000000
2017-09-27 04:16:27,2.48,0.98,0.00,21.24,26.02,29.14,14.03,42.20,1020.52,2036.05,3168.92,2808.83,3213.68,599.85,601.69,31.22,0000 0000 0000 0000 000000
2017-09-27 04:21:29,0.65,1.04,0.00,21.24,26.02,29.16,14.14,42.42,1020.52,2036.01,3152.53,2796.10,3199.59,600.75,602.65,31.27,0000 0000 0000 0000 000000
2017-09-27 04:26:30,0.39,1.06,0.00,21.29,26.04,29.16,14.04,42.31,1020.52,2036.02,3144.26,2790.07,3192.83,599.92,601.72,31.32,0000 0000 0000 0000 000000
2017-09-27 04:31:31,0.29,1.08,0.87,21.27,26.05,29.17,14.03,42.28,1020.52,2036.01,3138.85,2786.23,3188.40,600.07,601.93,31.37,0000 0000 0000 0000 000000
2017-09-27 04:36:33,0.23,1.09,1.00,21.29,26.05,29.17,14.10,42.27,1020.52,2036.02,3133.83,2782.62,3184.18,599.73,601.52,31.42,0000 0000 0000 0000 000000
2017-09-27 04:41:34,0.25,1.10,1.00,21.29,26.06,29.18,13.98,42.05,1020.52,2036.01,3129.55,2779.53,3180.63,600.04,601.83,31.47,0000 0000 0000 0000 000000
2017-09-27 04:46:35,0.34,1.12,1.00,21.30,26.07,29.19,14.09,42.10,1020.51,2036.00,3122.99,2774.87,3175.25,600.16,601.97,31.52,0000 0000 0000 0000 000000
2017-09-27 04:51:36,0.16,1.13,1.00,21.37,26.07,29.20,14.08,42.23,1020.51,2036.00,3119.41,2772.39,3172.28,600.67,602.21,31.57,0000 0000 0000 0000 000000
2017-09-27 04:56:38,0.21,1.14,1.00,21.35,26.09,29.20,14.03,42.07,1020.52,2036.00,3115.52,2769.83,3169.11,599.94,601.63,31.62,0000 0000 0000 0000 000000
2017-09-27 05:01:39,0.16,1.15,0.10,21.35,26.10,29.21,14.04,42.16,1020.52,2036.00,3112.07,2767.61,3166.33,599.72,601.42,31.67,0000 0000 0000 0000 000000
2017-09-27 05:06:40,0.14,1.16,0.00,21.39,26.10,29.23,14.01,41.95,1020.52,2036.00,3109.28,2765.73,3163.94,599.82,601.42,31.72,0000 0000 0000 0000 000000
2017-09-27 05:11:41,0.09,1.16,0.00,21.37,26.12,29.23,14.02,41.92,1020.52,2035.99,3107.35,2764.44,3162.27,599.79,601.64,31.77,0000 0000 0000 0000 000000
2017-09-27 05:16:43,0.09,1.17,0.00,21.40,26.12,29.24,14.05,41.93,1020.52,2035.99,3105.65,2763.21,3160.73,599.98,601.56,31.82,0000 0000 0000 0000 000000
2017-09-27 05:21:44,0.11,1.17,0.00,21.39,26.13,29.25,14.06,42.17,1020.52,2035.99,3103.65,2761.73,3158.89,599.90,601.50,31.87,0000 0000 0000 0000 000000
2017-09-27 05:26:46,0.15,1.18,0.00,21.37,26.15,29.25,14.05,42.26,1020.52,2035.99,3101.03,2759.84,3156.59,600.26,601.79,31.92,0000 0000 0000 0000 000000
2017-09-27 05:31:47,0.14,1.19,0.00,21.42,26.15,29.26,14.03,42.16,1020.52,2035.99,3098.11,2757.77,3154.30,600.09,601.63,31.97,0000 0000 0000 0000 000000
2017-09-27 05:36:48,0.08,1.19,0.00,21.41,26.15,29.28,14.04,42.16,1020.52,2035.97,3096.50,2756.63,3152.87,599.49,600.96,32.02,0000 0000 0000 0000 000000
2017-09-27 05:41:49,0.18,1.20,0.00,21.39,26.17,29.27,14.09,41.97,1020.52,2035.97,3093.87,2754.79,3150.59,599.90,601.31,32.07,0000 0000 0000 0000 000000
2017-09-27 05:46:51,0.30,1.22,0.00,21.41,26.17,29.28,14.08,42.35,1020.52,2035.96,3087.76,2750.52,3145.57,600.12,601.57,32.12,0000 0000 0000 0000 000000
2017-09-27 05:51:52,0.04,1.22,0.00,21.40,26.17,29.30,14.07,42.17,1020.51,2035.83,3086.56,2749.52,3144.26,599.76,601.37,32.17,0000 0000 0000 0000 000000
2017-09-27 05:56:53,0.02,1.22,0.00,21.41,26.18,29.31,14.01,42.17,1020.52,2035.79,3085.89,2749.00,3143.70,599.88,601.38,32.22,0000 0000 0000 0000 000000
2017-09-27 06:01:54,0.03,1.22,0.00,21.42,26.20,29.32,14.10,42.35,1020.52,2035.58,3084.94,2748.19,3142.79,600.25,601.79,32.27,0000 0000 0000 0000 000000
2017-09-27 06:06:55,0.09,1.23,0.00,21.40,26.20,29.31,14.05,42.27,1020.50,2035.43,3083.50,2747.08,3141.36,600.27,601.83,32.32,0000 0000 0000 0000 000000
2017-09-27 06:11:57,0.10,1.23,0.00,21.43,26.20,29.32,14.09,42.31,1020.47,2035.39,3081.69,2745.69,3139.67,599.90,601.38,32.38,0000 0000 0000 0000 000000
2017-09-27 06:16:58,0.03,1.24,0.00,21.44,26.20,29.33,14.02,42.28,1020.46,2035.13,3080.52,2744.80,3138.35,599.91,601.38,32.43,0000 0000 0000 0000 000000
2017-09-27 06:21:59,0.03,1.24,0.00,21.43,26.21,29.33,13.99,42.08,1020.49,2035.14,3079.96,2744.07,3137.80,600.03,601.53,32.48,0000 0000 0000 0000 000000
2017-09-27 06:27:00,0.05,1.24,0.00,21.45,26.22,29.33,14.09,42.36,1020.51,2035.10,3079.08,2743.52,3136.90,600.17,601.54,32.53,0000 0000 0000 0000 000000
2017-09-27 06:32:02,0.07,1.24,0.00,21.45,26.22,29.34,14.05,42.41,1020.49,2035.05,3077.91,2742.50,3135.73,599.71,601.28,32.58,0000 0000 0000 0000 000000
2017-09-27 06:37:02,0.07,1.25,0.00,21.46,26.22,29.34,14.11,42.44,1020.46,2035.07,3076.56,2741.34,3134.51,600.04,601.52,32.63,0000 0000 0000 0000 000000
2017-09-27 06:42:04,0.11,1.25,0.00,21.46,26.23,29.34,14.05,42.25,1020.45,2035.02,3074.81,2739.99,3132.85,599.85,601.26,32.68,0000 0000 0000 0000 000000
2017-09-27 06:47:05,0.11,1.26,0.00,21.48,26.25,29.36,14.00,42.07,1020.48,2035.02,3072.67,2738.39,3130.76,599.22,600.64,32.73,0000 0000 0000 0000 000000
2017-09-27 06:52:07,0.06,1.26,0.00,21.49,26.25,29.37,14.01,42.15,1020.50,2035.00,3071.49,2737.42,3129.66,600.17,601.48,32.78,0000 0000 0000 0000 000000
2017-09-27 06:57:08,0.01,1.26,0.00,21.47,26.25,29.37,14.07,42.24,1020.50,2035.00,3070.96,2736.95,3128.99,600.07,601.34,32.83,0000 0000 0000 0000 000000
2017-09-27 07:02:09,0.06,1.27,0.00,21.48,26.25,29.38,14.08,42.45,1020.52,2035.00,3070.08,2736.14,3128.13,600.13,601.54,32.88,0000 0000 0000 0000 000000
2017-09-27 07:07:11,0.05,1.27,0.00,21.51,26.27,29.38,14.02,42.53,1020.51,2035.00,3069.21,2735.54,3127.29,600.21,601.57,32.93,0000 0000 0000 0000 000000
2017-09-27 07:12:12,0.03,1.27,0.00,21.52,26.27,29.38,14.06,42.52,1020.52,2035.00,3068.36,2734.97,3126.49,599.78,601.26,32.98,0000 0000 0000 0000 000000
2017-09-27 07:17:13,0.03,1.27,0.00,21.52,26.27,29.39,14.07,42.52,1020.52,2035.00,3067.90,2734.21,3125.91,600.07,601.38,33.03,0000 0000 0000 0000 000000
2017-09-27 07:22:14,0.03,1.28,0.00,21.54,26.28,29.40,14.07,42.41,1020.52,2035.00,3067.11,2733.95,3125.08,600.10,601.37,33.08,0000 0000 0000 0000 000000
2017-09-27 07:27:16,0.04,1.28,0.00,21.52,26.30,29.40,13.99,42.35,1020.52,2034.99,3066.80,2733.18,3124.77,600.00,601.36,33.13,0000 0000 0000 0000 000000
2017-09-27 07:32:17,0.02,1.28,0.00,21.52,26.30,29.42,14.03,42.40,1020.52,2034.99,3066.06,2732.98,3124.05,600.32,601.64,33.18,0000 0000 0000 0000 000000
2017-09-27 07:37:18,0.03,1.28,0.00,21.50,26.30,29.42,14.13,42.39,1020.52,2034.99,3065.88,2732.48,3123.80,600.26,601.76,33.23,0000 0000 0000 0000 000000
2017-09-27 07:42:19,0.03,1.28,0.00,21.49,26.30,29.42,14.05,42.57,1020.52,2034.99,3065.08,2732.01,3123.07,599.55,600.93,33.28,0000 0000 0000 0000 000000
2017-09-27 07:47:20,0.04,1.28,0.00,21.50,26.32,29.45,14.07,42.42,1020.52,2034.99,3064.63,2731.70,3122.55,600.22,601.70,33.34,0000 0000 0000 0000 000000
2017-09-27 07:52:21,0.02,1.29,0.00,21.50,26.32,29.45,14.10,42.49,1020.52,2034.97,3064.01,2731.02,3121.97,600.06,601.45,33.39,0000 0000 0000 0000 000000
2017-09-27 07:57:23,0.05,1.29,0.00,21.50,26.32,29.46,14.11,42.50,1020.52,2034.97,3063.32,2730.68,3121.19,600.36,601.64,33.44,0000 0000 0000 0000 000000
2017-09-27 08:02:24,0.03,1.29,0.00,21.50,26.32,29.46,14.16,42.55,1020.52,2034.98,3062.68,2730.03,3120.64,600.23,601.57,33.49,0000 0000 0000 0000 000000
2017-09-27 08:07:25,0.03,1.29,0.00,21.48,26.32,29.47,14.03,42.41,1020.52,2034.97,3062.02,2729.63,3120.02,599.85,601.26,33.54,0000 0000 0000 0000 000000
2017-09-27 08:12:26,0.04,1.29,0.00,21.43,26.32,29.47,14.01,42.24,1020.52,2034.98,3061.33,2729.04,3119.32,599.95,601.47,33.59,0000 0000 0000 0000 000000
2017-09-27 08:17:28,0.01,1.30,0.00,21.46,26.33,29.47,14.06,42.21,1020.52,2034.97,3060.93,2728.79,3118.95,599.75,601.27,33.64,0000 0000 0000 0000 000000
2017-09-27 08:22:29,0.05,1.30,0.00,21.41,26.33,29.46,14.06,42.28,1020.52,2034.97,3060.15,2728.05,3118.23,599.94,601.46,33.69,0000 0000 0000 0000 000000
2017-09-27 08:27:30,0.01,1.30,0.00,21.40,26.34,29.46,14.10,42.17,1020.51,2034.97,3059.81,2727.95,3117.88,599.90,601.36,33.74,0000 0000 0000 0000 000000
2017-09-27 08:32:31,0.05,1.30,0.00,21.44,26.34,29.46,14.02,42.20,1020.52,2034.97,3059.06,2727.29,3117.14,599.64,600.99,33.79,0000 0000 0000 0000 000000
2017-09-27 08:37:32,0.00,1.30,0.00,21.40,26.33,29.47,14.06,42.17,1020.52,2034.98,3058.88,2727.01,3116.99,600.39,601.92,33.84,0000 0000 0000 0000 000000
2017-09-27 08:42:34,0.03,1.30,0.00,21.37,26.34,29.47,14.03,42.12,1020.51,2034.98,3058.11,2726.98,3116.52,599.51,601.42,33.89,0000 0000 0000 0000 000000
2017-09-27 08:47:36,0.02,1.30,0.00,21.37,26.33,29.48,14.08,42.35,1020.44,2034.98,3057.99,2726.45,3116.02,600.11,601.67,33.94,0000 0000 0000 0000 000000
2017-09-27 08:52:37,0.02,1.31,0.00,21.34,26.33,29.47,14.15,42.53,1020.46,2034.98,3057.52,2726.02,3115.96,600.27,601.93,33.99,0000 0000 0000 0000 000000
2017-09-27 08:57:38,0.02,1.31,0.00,21.33,26.32,29.46,14.14,42.41,1020.47,2034.99,3056.93,2725.94,3115.23,600.07,601.62,34.04,0000 0000 0000 0000 000000
2017-09-27 09:02:40,0.05,1.31,0.00,21.33,26.32,29.48,14.08,42.47,1020.42,2034.98,3056.07,2725.18,3114.66,600.20,601.88,34.09,0000 0000 0000 0000 000000
2017-09-27 09:07:41,0.02,1.31,0.00,21.29,26.32,29.49,14.02,42.27,1020.38,2034.98,3055.29,2724.95,3114.02,599.55,601.36,34.14,0000 0000 0000 0000 000000
2017-09-27 09:12:42,0.03,1.31,0.00,21.30,26.32,29.46,14.09,42.23,1020.35,2034.99,3054.88,2724.40,3113.76,600.30,601.98,34.19,0000 0000 0000 0000 000000
2017-09-27 09:17:44,0.02,1.31,0.00,21.28,26.32,29.46,14.12,42.46,1020.29,2034.99,3054.09,2724.01,3113.07,600.35,601.86,34.24,0000 0000 0000 0000 000000
2017-09-27 09:22:45,0.02,1.31,0.00,21.27,26.32,29.50,14.05,42.27,1020.32,2034.99,3053.64,2723.90,3112.86,599.61,601.40,34.29,0000 0000 0000 0000 000000
2017-09-27 09:27:46,0.04,1.32,0.00,21.27,26.31,29.47,14.17,42.49,1020.25,2034.99,3052.99,2723.17,3112.12,599.95,601.61,34.35,0000 0000 0000 0000 000000
2017-09-27 09:32:48,0.01,1.32,0.00,21.24,26.30,29.46,14.14,42.18,1020.24,2034.99,3052.24,2723.00,3112.00,599.91,601.59,34.40,0000 0000 0000 0000 000000
2017-09-27 09:37:49,0.02,1.32,0.00,21.24,26.30,29.49,14.10,42.28,1020.20,2034.99,3051.65,2722.90,3111.67,599.67,601.24,34.45,0000 0000 0000 0000 000000
2017-09-27 09:42:50,0.04,1.32,0.00,21.23,26.30,29.45,14.09,42.38,1020.19,2034.99,3050.75,2722.10,3111.02,600.57,602.17,34.50,0000 0000 0000 0000 000000
2017-09-27 09:47:51,0.02,1.32,0.00,21.21,26.30,29.44,14.05,42.31,1020.14,2034.99,3049.78,2721.99,3110.77,600.10,601.85,34.55,0000 0000 0000 0000 000000
2017-09-27 09:52:53,0.04,1.33,0.00,21.21,26.28,29.49,14.03,42.13,1020.11,2034.99,3049.03,2721.52,3110.05,600.10,601.83,34.60,0000 0000 0000 0000 000000
2017-09-27 09:57:54,0.02,1.33,0.00,21.17,26.27,29.47,14.06,42.48,1020.08,2035.00,3048.33,2721.02,3109.98,600.06,601.88,34.65,0000 0000 0000 0000 000000
2017-09-27 10:02:55,0.00,1.33,0.00,21.16,26.27,29.49,14.08,42.18,1020.06,2035.00,3048.01,2721.00,3109.70,599.83,601.60,34.70,0000 0000 0000 0000 000000
2017-09-27 10:07:56,0.01,1.33,0.00,21.15,26.27,29.48,14.06,42.23,1020.07,2035.02,3048.00,2721.00,3109.33,599.98,601.79,34.75,0000 0000 0000 0000 000000
2017-09-27 10:12:58,0.00,1.33,0.00,21.15,26.25,29.50,14.06,42.26,1020.05,2035.01,3048.00,2720.99,3109.09,599.88,601.61,34.80,0000 0000 0000 0000 000000
2017-09-27 10:17:59,0.00,1.33,0.00,21.15,26.25,29.48,14.13,42.32,1020.04,2035.00,3047.98,2720.98,3109.02,600.05,601.99,34.85,0000 0000 0000 0000 000000
2017-09-27 10:23:00,0.00,1.33,0.00,21.15,26.25,29.54,14.08,42.33,1020.04,2035.01,3047.88,2720.98,3109.01,599.92,601.80,34.90,0000 0000 0000 0000 000000
2017-09-27 10:28:01,0.01,1.33,0.00,21.13,26.24,29.52,14.10,42.24,1020.04,2035.02,3047.53,2720.97,3109.00,599.86,601.85,34.95,0000 0000 0000 0000 000000
2017-09-27 10:33:02,0.01,1.33,0.00,21.11,26.22,29.55,14.23,42.48,1019.91,2035.04,3047.09,2720.94,3109.00,600.40,602.19,35.00,0000 0000 0000 0000 000000
2017-09-27 10:38:04,0.01,1.33,0.00,21.10,26.22,29.46,14.13,42.42,1019.72,2035.20,3047.03,2720.92,3109.00,599.89,601.67,35.05,0000 0000 0000 0000 000000
2017-09-27 10:43:05,0.02,1.33,0.00,21.10,26.22,29.45,14.13,42.33,1019.57,2035.29,3047.00,2720.85,3108.99,600.10,601.76,35.10,0000 0000 0000 0000 000000
2017-09-27 10:48:06,0.01,1.33,0.00,21.08,26.20,29.41,14.02,42.23,1019.55,2035.50,3047.00,2720.68,3108.99,599.94,601.47,35.15,0000 0000 0000 0000 000000
2017-09-27 10:53:08,0.03,1.33,0.00,21.06,26.20,29.44,14.13,42.44,1019.55,2035.60,3046.96,2720.37,3108.98,600.16,601.82,35.20,0000 0000 0000 0000 000000
2017-09-27 10:58:09,0.06,1.34,0.00,21.05,26.20,29.45,14.08,42.31,1019.55,2035.86,3046.28,2720.05,3108.54,600.11,601.70,35.25,0000 0000 0000 0000 000000
2017-09-27 11:03:10,0.07,1.34,0.00,21.06,26.18,29.45,14.02,42.25,1019.55,2035.90,3045.07,2719.49,3107.65,599.68,601.42,35.30,0000 0000 0000 0000 000000
2017-09-27 11:08:12,0.09,1.34,0.00,21.03,26.17,29.44,14.10,42.35,1019.55,2035.95,3043.05,2718.35,3106.42,599.92,601.63,35.36,0000 0000 0000 0000 000000
2017-09-27 11:13:13,0.07,1.35,0.00,21.02,26.17,29.46,14.07,42.34,1019.55,2035.98,3041.49,2717.24,3105.24,600.00,601.86,35.41,0000 0000 0000 0000 000000
2017-09-27 11:18:14,0.06,1.35,0.00,21.01,26.16,29.48,14.08,42.48,1019.55,2035.99,3040.13,2716.50,3104.38,600.07,601.88,35.46,0000 0000 0000 0000 000000
2017-09-27 11:23:15,0.05,1.35,0.00,21.00,26.15,29.46,14.12,42.37,1019.54,2035.99,3038.82,2715.84,3103.41,599.89,601.72,35.51,0000 0000 0000 0000 000000
2017-09-27 11:28:16,0.02,1.36,0.00,21.00,26.15,29.43,14.02,42.25,1019.53,2035.98,3038.09,2715.26,3103.00,599.72,601.59,35.56,0000 0000 0000 0000 000000
2017-09-27 11:33:18,0.00,1.36,0.00,20.99,26.14,29.40,14.10,42.36,1019.46,2035.98,3038.07,2715.32,3103.00,600.00,601.85,35.61,0000 0000 0000 0000 000000
2017-09-27 11:38:19,-0.01,1.36,0.00,20.97,26.13,29.41,14.07,42.41,1019.24,2035.99,3038.14,2715.59,3103.00,599.86,601.48,35.66,0000 0000 0000 0000 000000
2017-09-27 11:43:20,-0.00,1.36,0.00,20.97,26.12,29.34,14.07,42.38,1019.21,2035.98,3038.06,2715.54,3103.00,600.07,601.75,35.71,0000 0000 0000 0000 000000
2017-09-27 11:48:22,-0.01,1.36,0.00,20.95,26.12,29.40,14.09,42.27,1019.14,2035.99,3038.22,2715.84,3103.00,599.69,601.50,35.76,0000 0000 0000 0000 000000
2017-09-27 11:53:23,-0.00,1.36,0.00,20.96,26.11,29.43,14.13,42.42,1019.09,2035.99,3038.32,2715.90,3103.00,600.50,602.10,35.81,0000 0000 0000 0000 000000
2017-09-27 11:58:24,-0.00,1.36,0.00,20.96,26.10,29.32,14.08,42.44,1019.07,2035.98,3038.14,2715.90,3103.01,599.99,601.59,35.86,0000 0000 0000 0000 000000
2017-09-27 12:03:25,0.01,1.36,0.00,20.94,26.10,29.30,14.12,42.50,1019.06,2035.99,3038.06,2715.86,3103.00,600.04,601.73,35.91,0000 0000 0000 0000 000000
2017-09-27 12:08:26,0.00,1.36,0.00,20.95,26.10,29.33,14.13,42.51,1019.06,2035.99,3038.03,2715.89,3103.01,600.31,601.80,35.96,0000 0000 0000 0000 000000
2017-09-27 12:13:28,-0.00,1.36,0.00,20.95,26.08,29.32,14.07,42.34,1019.06,2035.99,3038.00,2715.87,3103.01,600.03,601.61,36.01,0000 0000 0000 0000 000000
2017-09-27 12:18:29,-0.00,1.36,0.00,20.95,26.07,29.31,14.10,42.43,1019.06,2035.99,3038.00,2715.95,3103.02,599.97,601.49,36.06,0000 0000 0000 0000 000000
2017-09-27 12:23:30,0.00,1.36,0.00,20.96,26.07,29.31,14.07,42.42,1019.06,2036.00,3038.01,2715.96,3103.02,600.23,601.59,36.11,0000 0000 0000 0000 000000
2017-09-27 12:28:32,0.00,1.36,0.00,20.97,26.07,29.25,14.19,42.39,1019.06,2036.00,3038.01,2715.97,3103.01,600.20,601.97,36.16,0000 0000 0000 0000 000000
2017-09-27 12:33:33,0.00,1.36,0.00,20.98,26.07,29.27,14.12,42.21,1019.06,2036.01,3038.00,2715.98,3103.02,599.96,601.58,36.21,0000 0000 0000 0000 000000
2017-09-27 12:38:34,0.00,1.36,0.00,20.97,26.05,29.26,14.10,42.12,1019.05,2036.01,3038.00,2715.98,3103.03,600.27,601.78,36.26,0000 0000 0000 0000 000000
2017-09-27 12:43:35,0.00,1.36,0.00,20.94,26.05,29.19,14.05,42.22,1019.03,2036.02,3038.00,2715.97,3103.01,600.05,601.79,36.32,0000 0000 0000 0000 000000
2017-09-27 12:48:37,0.00,1.36,0.00,20.94,26.05,29.19,14.07,42.22,1019.01,2036.04,3038.00,2715.95,3103.01,600.01,601.67,36.37,0000 0000 0000 0000 000000
2017-09-27 12:53:38,0.01,1.36,0.00,20.94,26.05,29.21,14.03,42.17,1018.80,2036.12,3037.99,2715.97,3103.01,599.81,601.43,36.42,0000 0000 0000 0000 000000